Regional Weather Roundup
Issued by NWS

Home | Current Version | Previous Version | Text Only | Print | Product List | Glossary Off
Versions: 1 2 3 4 5 6 7 8 9 10 11 12 13 14 15 16 17 18 19 20 21 22 23 24 25 26 27

000
ASUS45 KBOU 101007
RWRCO

WEATHER ROUNDUP FOR COLORADO
NATIONAL WEATHER SERVICE DENVER/BOULDER CO
300 AM MST SAT DEC 10 2016

NOTE: "FAIR" INDICATES FEW OR NO CLOUDS BELOW 12000 FEET WITH NO
SIGNIFICANT WEATHER AND/OR OBSTRUCTIONS TO VISIBILITY.

COZ001>005-013-030-031-101100-
...NORTHWEST COLORADO...

CITY           SKY/WX    TMP DP  RH WIND       PRES   REMARKS
CRAIG          MOCLDY    27  23  85 SE3       30.09F
HAYDEN         CLOUDY    28  21  74 SE7       30.09F WCI  21
MEEKER         FAIR      39  24  55 SW14      30.10F
MOUNT WERNER   NOT AVBL
STEAMBOAT SPGS CLOUDY    23  22  96 CALM      30.09F
WALDEN           N/A     34  19  55 SW20G28   30.07F WCI  22
$$

COZ006>008-011-101100-
...WEST CENTRAL VALLEYS...

CITY           SKY/WX    TMP DP  RH WIND       PRES   REMARKS
GRAND JUNCTION FAIR      22  19  89 NE3       30.21R
MONTROSE       FAIR      25  21  85 S3        30.22R
EAGLE          FAIR      20  18  92 E3        30.18S
RIFLE          FAIR      24  21  88 CALM      30.21S
DELTA          NOT AVBL
NUCLA          FAIR      28  23  80 SE5       30.25R WCI  23
$$

COZ017>023-064>068-101100-
...SOUTHWEST COLORADO...

CITY           SKY/WX    TMP DP  RH WIND       PRES   REMARKS
DURANGO        FAIR      18  13  80 CALM      30.26F
CORTEZ         FAIR      22  20  92 NE5       30.24S WCI  16
PAGOSA SPRINGS FAIR      18  17  95 CALM      30.28S
TELLURIDE      FAIR      32  18  57 S5        30.27S WCI  27
WOLF CREEK PAS FAIR      18  16  93 S12       30.33F WCI   5
$$

COZ009-010-012-014-032>034-037-058>063-101100-
...CENTRAL COLORADO...

CITY           SKY/WX    TMP DP  RH WIND       PRES   REMARKS
ASPEN          MOCLDY    26  21  81 S5        30.15S WCI  20
BUENA VISTA    FAIR      40  15  37 SW9       30.11S
COPPER MTN     LGT SNOW  28  18  64 W26G44    30.17F VSB 3/4 WCI  13
BERTHOUD PASS  LGT SNOW  19   5  53 MISG      30.13S
COTTONWOOD PAS FAIR      37  14  38 W22G47    30.09S
GUNNISON       FAIR       6   4  91 CALM      30.26S
KREMMLING      CLOUDY    43  23  45 E6        30.12S
LEADVILLE      FAIR      27  15  61 NE13      30.15S WCI  16
MONARCH PASS     N/A     21  18  86 W36       30.32S WCI   2
SALIDA         FAIR      40  17  39 SW17G25   30.19S
SUNLIGHT       CLOUDY    23  19  86 SW18G29   30.23R WCI   9
WILKERSON PASS FAIR      27  14  59 W13G23    30.12S WCI  16
$$

COZ069>075-101100-
...SAN LUIS VALLEY/SANGRE DE CRISTO MOUNTAINS...

CITY           SKY/WX    TMP DP  RH WIND       PRES   REMARKS
ALAMOSA        FAIR       7   4  87 W6        30.22F WCI  -3
LA VETA PASS   FAIR      28  18  64 NE31G48   30.14F WCI  12
SAGUACHE       FAIR      18  12  79 NW8       30.23F WCI   7
$$

COZ035-036-038>040-101100-
...NORTHERN COLORADO FRONT RANGE...

CITY           SKY/WX    TMP DP  RH WIND       PRES   REMARKS
DENVER INTL AP FAIR      19  16  88 N5        30.00S FOG     WCI  12
DMNS CITY PARK   N/A     24  20  85 NW1       29.99S
AURORA         PTCLDY    22  20  90 N12       29.99S WCI  11
FRONT RANGE AP FAIR      21  19  93 NE3       30.00R FOG
ERIE MUNI ARPT FAIR      15  14  94 NW7       30.03R FOG     WCI   5
BOULDER MUN AP FAIR      23  19  86 NW9       30.01R WCI  13
CENTENNIAL     FAIR      32  22  66 S13       29.97F WCI  22
BROOMFIELD     FAIR      25  21  86 N12       29.99S WCI  14
FORT COLLINS   FAIR      14  10  85 CALM      30.03F
LONGMONT       FAIR      15  12  87 SW3       30.04F
$$

COZ041-046-047-076>085-087-088-101100-
...PIKES PEAK/PALMER DIVIDE AND SOUTHERN FOOTHILLS...

CITY           SKY/WX    TMP DP  RH WIND       PRES   REMARKS
COLO. SPRINGS  FAIR      25  17  72 NE7       30.04F WCI  17
A. F. ACADEMY  FAIR      21  16  81 VRB6      30.02F WCI  14
SCHRIEVER AFB  NOT AVBL
ELLICOTT       LGT RAIN N/A N/A N/A CALM      30.02F
FALCON         FAIR      26  16  68 SW3       30.04F
FORT CARSON    FAIR      21  14  75 NW2       30.02F
LIMON          FAIR      13  11  92 N3        30.03F
MONUMENT HILL  FAIR      28  18  64 S8        30.03F WCI  20
TRINIDAD       FAIR      37  17  44 W12       30.07F
$$

COZ042>045-048>051-090-091-101100-
...NORTHEAST COLORADO...

CITY           SKY/WX    TMP DP  RH WIND       PRES   REMARKS
GREELEY ARPT   FAIR      13  10  88 NW3       30.04S
AKRON          FAIR      20  17  88 W6        30.01F WCI  12
BURLINGTON     FAIR      22  18  85 S10       30.04F WCI  11
WRAY           NOT AVBL
STERLING       MOCLDY    18  14  86 CALM      30.04F
HOLYOKE        FAIR      21  18  86 CALM      30.11R
FORT MORGAN    FAIR      17  14  86 N7        30.04F WCI   8
$$

COZ086-089-092>099-101100-
...SOUTHEAST COLORADO...

CITY           SKY/WX    TMP DP  RH WIND       PRES   REMARKS
PUEBLO         FAIR      18  11  74 W6        30.06F WCI  10
LA JUNTA       FAIR      20  12  71 W9        30.08F WCI   9
LAMAR          FAIR      18  14  84 SW6       30.09F WCI  10
SPRINGFIELD      N/A     20  19  96 SW7       30.07F WCI  11
$$




USA.gov is the U.S. government's official web portal to all federal, state and local government web resources and services.